����������;��������(kVARh)
2018-12-31 00:00;0
2018-12-31 00:15;0
2018-12-31 00:30;0
2018-12-31 00:45;0,1
2018-12-31 01:00;0,2
2018-12-31 01:15;1
2018-12-31 01:30;1,45
2018-12-31 01:45;1,45
2018-12-31 02:00;2,9
2018-12-31 02:15;2,2
2018-12-31 02:30;3,1
2018-12-31 02:45;2,4
2018-12-31 03:00;4,25
2018-12-31 03:15;12,2
2018-12-31 03:30;13,05
2018-12-31 03:45;13,3
2018-12-31 04:00;13,2
2018-12-31 04:15;12,2
2018-12-31 04:30;12,3
2018-12-31 04:45;12,3
2018-12-31 05:00;12,5
2018-12-31 05:15;12,45
2018-12-31 05:30;11,6
2018-12-31 05:45;11
2018-12-31 06:00;11,15
2018-12-31 06:15;8,3
2018-12-31 06:30;7,15
2018-12-31 06:45;7,95
2018-12-31 07:00;6,2
2018-12-31 07:15;5,9
2018-12-31 07:30;12,65
2018-12-31 07:45;36,55
2018-12-31 08:00;28,7
2018-12-31 08:15;14,6
2018-12-31 08:30;6,55
2018-12-31 08:45;9,15
2018-12-31 09:00;13,2
2018-12-31 09:15;10,4
2018-12-31 09:30;17,25
2018-12-31 09:45;19,25
2018-12-31 10:00;14,4
2018-12-31 10:15;20,55
2018-12-31 10:30;12,9
2018-12-31 10:45;14,05
2018-12-31 11:00;20,1
2018-12-31 11:15;13,1
2018-12-31 11:30;16,55
2018-12-31 11:45;6,55
2018-12-31 12:00;6,55
2018-12-31 12:15;5,9
2018-12-31 12:30;1,45
2018-12-31 12:45;9,1
2018-12-31 13:00;3,7
2018-12-31 13:15;3,5
2018-12-31 13:30;6,6
2018-12-31 13:45;0,2
2018-12-31 14:00;3,85
2018-12-31 14:15;0,05
2018-12-31 14:30;5,8
2018-12-31 14:45;1,2
2018-12-31 15:00;2,6
2018-12-31 15:15;2,2
2018-12-31 15:30;4,65
2018-12-31 15:45;0,05
2018-12-31 16:00;0
2018-12-31 16:15;0
2018-12-31 16:30;0
2018-12-31 16:45;0
2018-12-31 17:00;0
2018-12-31 17:15;0
2018-12-31 17:30;0,05
2018-12-31 17:45;0
2018-12-31 18:00;0
2018-12-31 18:15;0
2018-12-31 18:30;0
2018-12-31 18:45;0,05
2018-12-31 19:00;0,05
2018-12-31 19:15;0
2018-12-31 19:30;0,1
2018-12-31 19:45;0
2018-12-31 20:00;1,15
2018-12-31 20:15;1
2018-12-31 20:30;0,85
2018-12-31 20:45;1,55
2018-12-31 21:00;1,4
2018-12-31 21:15;3,95
2018-12-31 21:30;5,05
2018-12-31 21:45;2,15
2018-12-31 22:00;0,45
2018-12-31 22:15;0,85
2018-12-31 22:30;0,1
2018-12-31 22:45;0,2
2018-12-31 23:00;1,15
2018-12-31 23:15;0,15
2018-12-31 23:30;1,05
2018-12-31 23:45;1,1
2019-01-01 00:00;0
2019-01-01 00:15;0
2019-01-01 00:30;0
2019-01-01 00:45;0
2019-01-01 01:00;0
2019-01-01 01:15;0
2019-01-01 01:30;0
2019-01-01 01:45;0
2019-01-01 02:00;0
2019-01-01 02:15;0
2019-01-01 02:30;0
2019-01-01 02:45;0
2019-01-01 03:00;0
2019-01-01 03:15;0
2019-01-01 03:30;0
2019-01-01 03:45;0
2019-01-01 04:00;3,9
2019-01-01 04:15;3,8
2019-01-01 04:30;2,85
2019-01-01 04:45;3,7
2019-01-01 05:00;3,05
2019-01-01 05:15;3,7
2019-01-01 05:30;3,9
2019-01-01 05:45;4,65
2019-01-01 06:00;3,25
2019-01-01 06:15;4,1
2019-01-01 06:30;4,6
2019-01-01 06:45;3,9
2019-01-01 07:00;3,4
2019-01-01 07:15;3,3
2019-01-01 07:30;4,8
2019-01-01 07:45;4,4
2019-01-01 08:00;4,2
2019-01-01 08:15;4,35
2019-01-01 08:30;2,15
2019-01-01 08:45;3,2
2019-01-01 09:00;1,8
2019-01-01 09:15;0,8
2019-01-01 09:30;0,65
2019-01-01 09:45;0,05
2019-01-01 10:00;0,05
2019-01-01 10:15;0
2019-01-01 10:30;0,05
2019-01-01 10:45;0
2019-01-01 11:00;0
2019-01-01 11:15;0
2019-01-01 11:30;0
2019-01-01 11:45;0,3
2019-01-01 12:00;0,1
2019-01-01 12:15;0,5
2019-01-01 12:30;0,1
2019-01-01 12:45;0
2019-01-01 13:00;0,15
2019-01-01 13:15;0,3
2019-01-01 13:30;0,55
2019-01-01 13:45;0,8
2019-01-01 14:00;0,8
2019-01-01 14:15;1,6
2019-01-01 14:30;0,95
2019-01-01 14:45;2,05
2019-01-01 15:00;2,3
2019-01-01 15:15;1,95
2019-01-01 15:30;3,15
2019-01-01 15:45;0,65
2019-01-01 16:00;1,25
2019-01-01 16:15;0,05
2019-01-01 16:30;0,05
2019-01-01 16:45;0,2
2019-01-01 17:00;0,05
2019-01-01 17:15;0,05
2019-01-01 17:30;0
2019-01-01 17:45;0
2019-01-01 18:00;0,1
2019-01-01 18:15;4,15
2019-01-01 18:30;1,75
2019-01-01 18:45;0
2019-01-01 19:00;0,25
2019-01-01 19:15;0,05
2019-01-01 19:30;0
2019-01-01 19:45;0
2019-01-01 20:00;0,1
2019-01-01 20:15;0,3
2019-01-01 20:30;0,1
2019-01-01 20:45;0,35
2019-01-01 21:00;0
2019-01-01 21:15;0,05
2019-01-01 21:30;0
2019-01-01 21:45;0
2019-01-01 22:00;0,1
2019-01-01 22:15;0,15
2019-01-01 22:30;0
2019-01-01 22:45;0
2019-01-01 23:00;1,65
2019-01-01 23:15;0,15
2019-01-01 23:30;0,05
2019-01-01 23:45;0,55
2019-01-02 00:00;0
2019-01-02 00:15;0
2019-01-02 00:30;0
2019-01-02 00:45;0,4
2019-01-02 01:00;1,6
2019-01-02 01:15;2,55
2019-01-02 01:30;2,3
2019-01-02 01:45;2,6
2019-01-02 02:00;0,85
2019-01-02 02:15;0
2019-01-02 02:30;0
2019-01-02 02:45;0
2019-01-02 03:00;0
2019-01-02 03:15;0
2019-01-02 03:30;0
2019-01-02 03:45;0,2
2019-01-02 04:00;0
2019-01-02 04:15;2,35
2019-01-02 04:30;2,75
2019-01-02 04:45;5,55
2019-01-02 05:00;5,15
2019-01-02 05:15;3,1
2019-01-02 05:30;4,25
2019-01-02 05:45;4,8
2019-01-02 06:00;3,3
2019-01-02 06:15;1,7
2019-01-02 06:30;2,4
2019-01-02 06:45;2
2019-01-02 07:00;1,05
2019-01-02 07:15;1,5
2019-01-02 07:30;2,8
2019-01-02 07:45;3,1
2019-01-02 08:00;3,4
2019-01-02 08:15;12,95
2019-01-02 08:30;37,05
2019-01-02 08:45;45,2
2019-01-02 09:00;66,85
2019-01-02 09:15;39
2019-01-02 09:30;44,4
2019-01-02 09:45;42,45
2019-01-02 10:00;36,35
2019-01-02 10:15;34,85
2019-01-02 10:30;31,35
2019-01-02 10:45;31,7
2019-01-02 11:00;31,35
2019-01-02 11:15;30,1
2019-01-02 11:30;29,15
2019-01-02 11:45;27,55
2019-01-02 12:00;29,55
2019-01-02 12:15;31,05
2019-01-02 12:30;29,65
2019-01-02 12:45;29,65
2019-01-02 13:00;28,5
2019-01-02 13:15;29,5
2019-01-02 13:30;34,85
2019-01-02 13:45;30,6
2019-01-02 14:00;26,4
2019-01-02 14:15;27,35
2019-01-02 14:30;26,65
2019-01-02 14:45;21,5
2019-01-02 15:00;18,95
2019-01-02 15:15;18,4
2019-01-02 15:30;15,5
2019-01-02 15:45;14,55
2019-01-02 16:00;12,9
2019-01-02 16:15;10,95
2019-01-02 16:30;9,8
2019-01-02 16:45;8,4
2019-01-02 17:00;7,05
2019-01-02 17:15;5,5
2019-01-02 17:30;4,1
2019-01-02 17:45;3,6
2019-01-02 18:00;3,15
2019-01-02 18:15;2,6
2019-01-02 18:30;6,95
2019-01-02 18:45;6,85
2019-01-02 19:00;12,45
2019-01-02 19:15;14,95
2019-01-02 19:30;13,6
2019-01-02 19:45;13
2019-01-02 20:00;11,65
2019-01-02 20:15;6,45
2019-01-02 20:30;5,25
2019-01-02 20:45;5,45
2019-01-02 21:00;5,2
2019-01-02 21:15;3,95
2019-01-02 21:30;3,9
2019-01-02 21:45;3,1
2019-01-02 22:00;3,7
2019-01-02 22:15;2,1
2019-01-02 22:30;1,5
2019-01-02 22:45;2,25
2019-01-02 23:00;4,95
2019-01-02 23:15;0,2
2019-01-02 23:30;1,7
2019-01-02 23:45;2,3
2019-01-03 00:00;3,8
2019-01-03 00:15;5,7
2019-01-03 00:30;6,1
2019-01-03 00:45;4,7
2019-01-03 01:00;4,1
2019-01-03 01:15;8,2
2019-01-03 01:30;16,2
2019-01-03 01:45;13,2
2019-01-03 02:00;12,65
2019-01-03 02:15;13,45
2019-01-03 02:30;13,65
2019-01-03 02:45;13,7
2019-01-03 03:00;14,15
2019-01-03 03:15;12,8
2019-01-03 03:30;10,95
2019-01-03 03:45;10,65
2019-01-03 04:00;9,4
2019-01-03 04:15;10,9
2019-01-03 04:30;9,75
2019-01-03 04:45;8,1
2019-01-03 05:00;9,25
2019-01-03 05:15;8,5
2019-01-03 05:30;9
2019-01-03 05:45;9,75
2019-01-03 06:00;10,75
2019-01-03 06:15;8,25
2019-01-03 06:30;7,8
2019-01-03 06:45;21,2
2019-01-03 07:00;25,2
2019-01-03 07:15;24,15
2019-01-03 07:30;46,3
2019-01-03 07:45;16,55
2019-01-03 08:00;29,6
2019-01-03 08:15;10,05
2019-01-03 08:30;19,05
2019-01-03 08:45;24
2019-01-03 09:00;17,25
2019-01-03 09:15;25,8
2019-01-03 09:30;24,45
2019-01-03 09:45;21,65
2019-01-03 10:00;40,2
2019-01-03 10:15;25,3
2019-01-03 10:30;27,55
2019-01-03 10:45;30,55
2019-01-03 11:00;28,4
2019-01-03 11:15;30,1
2019-01-03 11:30;30
2019-01-03 11:45;31,65
2019-01-03 12:00;32,35
2019-01-03 12:15;32,25
2019-01-03 12:30;34,05
2019-01-03 12:45;29,6
2019-01-03 13:00;35,7
2019-01-03 13:15;33,15
2019-01-03 13:30;32,95
2019-01-03 13:45;36,2
2019-01-03 14:00;31,8
2019-01-03 14:15;37,25
2019-01-03 14:30;33,85
2019-01-03 14:45;36,45
2019-01-03 15:00;31,1
2019-01-03 15:15;34,1
2019-01-03 15:30;23
2019-01-03 15:45;22,45
2019-01-03 16:00;21,1
2019-01-03 16:15;19,45
2019-01-03 16:30;18,05
2019-01-03 16:45;16,8
2019-01-03 17:00;14,7
2019-01-03 17:15;14,7
2019-01-03 17:30;9,8
2019-01-03 17:45;9,7
2019-01-03 18:00;9,85
2019-01-03 18:15;9,65
2019-01-03 18:30;5,25
2019-01-03 18:45;0,5
2019-01-03 19:00;0,7
2019-01-03 19:15;1,25
2019-01-03 19:30;1,6
2019-01-03 19:45;1,2
2019-01-03 20:00;0,65
2019-01-03 20:15;1,05
2019-01-03 20:30;0
2019-01-03 20:45;0
2019-01-03 21:00;0
2019-01-03 21:15;0
2019-01-03 21:30;0
2019-01-03 21:45;0
2019-01-03 22:00;0
2019-01-03 22:15;0
2019-01-03 22:30;0
2019-01-03 22:45;0
2019-01-03 23:00;0,7
2019-01-03 23:15;0,65
2019-01-03 23:30;1,2
2019-01-03 23:45;1,3
2019-01-04 00:00;0
2019-01-04 00:15;0
2019-01-04 00:30;1,65
2019-01-04 00:45;3,85
2019-01-04 01:00;0,4
2019-01-04 01:15;0,05
2019-01-04 01:30;0,05
2019-01-04 01:45;0,6
2019-01-04 02:00;11,85
2019-01-04 02:15;11,5
2019-01-04 02:30;12,1
2019-01-04 02:45;12,2
2019-01-04 03:00;12,55
2019-01-04 03:15;12,25
2019-01-04 03:30;13,1
2019-01-04 03:45;26,6
2019-01-04 04:00;31,3
2019-01-04 04:15;30,4
2019-01-04 04:30;29,05
2019-01-04 04:45;25,65
2019-01-04 05:00;26,6
2019-01-04 05:15;25,95
2019-01-04 05:30;22,6
2019-01-04 05:45;20,1
2019-01-04 06:00;19,25
2019-01-04 06:15;15,85
2019-01-04 06:30;17,2
2019-01-04 06:45;17,75
2019-01-04 07:00;16,8
2019-01-04 07:15;15,4
2019-01-04 07:30;46,25
2019-01-04 07:45;29,15
2019-01-04 08:00;23,3
2019-01-04 08:15;25,85
2019-01-04 08:30;30,3
2019-01-04 08:45;35,6
2019-01-04 09:00;34,2
2019-01-04 09:15;35,65
2019-01-04 09:30;33,7
2019-01-04 09:45;33,85
2019-01-04 10:00;33,3
2019-01-04 10:15;33,55
2019-01-04 10:30;33,9
2019-01-04 10:45;35,45
2019-01-04 11:00;35,85
2019-01-04 11:15;36,2
2019-01-04 11:30;67,2
2019-01-04 11:45;37,3
2019-01-04 12:00;30,8
2019-01-04 12:15;40
2019-01-04 12:30;34,15
2019-01-04 12:45;30,1
2019-01-04 13:00;35,05
2019-01-04 13:15;31,85
2019-01-04 13:30;34,2
2019-01-04 13:45;29,2
2019-01-04 14:00;35,2
2019-01-04 14:15;27,15
2019-01-04 14:30;33,2
2019-01-04 14:45;29,75
2019-01-04 15:00;34,9
2019-01-04 15:15;27,2
2019-01-04 15:30;30,1
2019-01-04 15:45;23,5
2019-01-04 16:00;22,9
2019-01-04 16:15;21,6
2019-01-04 16:30;22,9
2019-01-04 16:45;19,55
2019-01-04 17:00;14,85
2019-01-04 17:15;13,2
2019-01-04 17:30;11,75
2019-01-04 17:45;10,6
2019-01-04 18:00;10,4
2019-01-04 18:15;10
2019-01-04 18:30;11,8
2019-01-04 18:45;11,8
2019-01-04 19:00;6,5
2019-01-04 19:15;5,65
2019-01-04 19:30;2,25
2019-01-04 19:45;2,85
2019-01-04 20:00;10,35
2019-01-04 20:15;11,35
2019-01-04 20:30;11,7
2019-01-04 20:45;13,15
2019-01-04 21:00;11,55
2019-01-04 21:15;11,15
2019-01-04 21:30;12,9
2019-01-04 21:45;4
2019-01-04 22:00;3,8
2019-01-04 22:15;4,3
2019-01-04 22:30;5,9
2019-01-04 22:45;9
2019-01-04 23:00;9,65
2019-01-04 23:15;0,95
2019-01-04 23:30;3,4
2019-01-04 23:45;5,9
2019-01-05 00:00;3,8
2019-01-05 00:15;8,05
2019-01-05 00:30;8,95
2019-01-05 00:45;4,8
2019-01-05 01:00;3,3
2019-01-05 01:15;4,25
2019-01-05 01:30;3,15
2019-01-05 01:45;2,9
2019-01-05 02:00;1,1
2019-01-05 02:15;2
2019-01-05 02:30;2,45
2019-01-05 02:45;3,5
2019-01-05 03:00;2,3
2019-01-05 03:15;2,15
2019-01-05 03:30;2,1
2019-01-05 03:45;2,8
2019-01-05 04:00;2,15
2019-01-05 04:15;1,85
2019-01-05 04:30;1,7
2019-01-05 04:45;2,8
2019-01-05 05:00;2,65
2019-01-05 05:15;0,95
2019-01-05 05:30;1,3
2019-01-05 05:45;1,6
2019-01-05 06:00;1,5
2019-01-05 06:15;0,95
2019-01-05 06:30;0
2019-01-05 06:45;0,05
2019-01-05 07:00;0
2019-01-05 07:15;0
2019-01-05 07:30;0
2019-01-05 07:45;0
2019-01-05 08:00;0
2019-01-05 08:15;0,15
2019-01-05 08:30;0
2019-01-05 08:45;0
2019-01-05 09:00;0
2019-01-05 09:15;0,15
2019-01-05 09:30;0,25
2019-01-05 09:45;0,05
2019-01-05 10:00;0
2019-01-05 10:15;0
2019-01-05 10:30;0
2019-01-05 10:45;0
2019-01-05 11:00;0
2019-01-05 11:15;1,4
2019-01-05 11:30;1,9
2019-01-05 11:45;2,85
2019-01-05 12:00;2,35
2019-01-05 12:15;3,8
2019-01-05 12:30;1,9
2019-01-05 12:45;3,9
2019-01-05 13:00;4,3
2019-01-05 13:15;5,75
2019-01-05 13:30;6,45
2019-01-05 13:45;7,45
2019-01-05 14:00;8,9
2019-01-05 14:15;11,35
2019-01-05 14:30;10,3
2019-01-05 14:45;11,45
2019-01-05 15:00;12,75
2019-01-05 15:15;13,9
2019-01-05 15:30;16,15
2019-01-05 15:45;14,7
2019-01-05 16:00;9,1
2019-01-05 16:15;6,75
2019-01-05 16:30;6,8
2019-01-05 16:45;5,4
2019-01-05 17:00;3,6
2019-01-05 17:15;3,65
2019-01-05 17:30;5,55
2019-01-05 17:45;5,7
2019-01-05 18:00;6,6
2019-01-05 18:15;3,55
2019-01-05 18:30;2,4
2019-01-05 18:45;4,05
2019-01-05 19:00;5,4
2019-01-05 19:15;2,4
2019-01-05 19:30;3,6
2019-01-05 19:45;2,5
2019-01-05 20:00;1,5
2019-01-05 20:15;2,85
2019-01-05 20:30;2,85
2019-01-05 20:45;1,25
2019-01-05 21:00;1,45
2019-01-05 21:15;0,75
2019-01-05 21:30;0,4
2019-01-05 21:45;1,05
2019-01-05 22:00;0,9
2019-01-05 22:15;1,6
2019-01-05 22:30;2
2019-01-05 22:45;0
2019-01-05 23:00;0,65
2019-01-05 23:15;0
2019-01-05 23:30;0,25
2019-01-05 23:45;0,4
2019-01-06 00:00;0
2019-01-06 00:15;0,1
2019-01-06 00:30;0,6
2019-01-06 00:45;0,45
2019-01-06 01:00;0
2019-01-06 01:15;0
2019-01-06 01:30;0
2019-01-06 01:45;0
2019-01-06 02:00;0,3
2019-01-06 02:15;0
2019-01-06 02:30;0
2019-01-06 02:45;0
2019-01-06 03:00;0,15
2019-01-06 03:15;0,15
2019-01-06 03:30;0,1
2019-01-06 03:45;0,4
2019-01-06 04:00;0,65
2019-01-06 04:15;0,1
2019-01-06 04:30;0
2019-01-06 04:45;0,85
2019-01-06 05:00;0,35
2019-01-06 05:15;0,1
2019-01-06 05:30;0,35
2019-01-06 05:45;0,35
2019-01-06 06:00;0,45
2019-01-06 06:15;0
2019-01-06 06:30;0,15
2019-01-06 06:45;0,05
2019-01-06 07:00;0,1
2019-01-06 07:15;0,85
2019-01-06 07:30;0,8
2019-01-06 07:45;0,8
2019-01-06 08:00;0,05
2019-01-06 08:15;0,7
2019-01-06 08:30;0,8
2019-01-06 08:45;0,6
2019-01-06 09:00;0
2019-01-06 09:15;0
2019-01-06 09:30;0
2019-01-06 09:45;0
2019-01-06 10:00;0,4
2019-01-06 10:15;0,1
2019-01-06 10:30;0
2019-01-06 10:45;0
2019-01-06 11:00;0
2019-01-06 11:15;0
2019-01-06 11:30;1,5
2019-01-06 11:45;1,85
2019-01-06 12:00;0,1
2019-01-06 12:15;0
2019-01-06 12:30;0
2019-01-06 12:45;0
2019-01-06 13:00;0
2019-01-06 13:15;0
2019-01-06 13:30;0
2019-01-06 13:45;0
2019-01-06 14:00;0
2019-01-06 14:15;4,4
2019-01-06 14:30;2,95
2019-01-06 14:45;3,25
2019-01-06 15:00;5,3
2019-01-06 15:15;5,65
2019-01-06 15:30;3,75
2019-01-06 15:45;3,85
2019-01-06 16:00;3,95
2019-01-06 16:15;4,45
2019-01-06 16:30;5,3
2019-01-06 16:45;4,2
2019-01-06 17:00;1,8
2019-01-06 17:15;1,35
2019-01-06 17:30;1,3
2019-01-06 17:45;0,6
2019-01-06 18:00;0,9
2019-01-06 18:15;0,8
2019-01-06 18:30;1,05
2019-01-06 18:45;0,75
2019-01-06 19:00;0,4
2019-01-06 19:15;0,7
2019-01-06 19:30;0,4
2019-01-06 19:45;1
2019-01-06 20:00;0,25
2019-01-06 20:15;0,2
2019-01-06 20:30;0,75
2019-01-06 20:45;0,25
2019-01-06 21:00;0,25
2019-01-06 21:15;0,3
2019-01-06 21:30;0,25
2019-01-06 21:45;0,15
2019-01-06 22:00;1
2019-01-06 22:15;0,8
2019-01-06 22:30;1,4
2019-01-06 22:45;1,5
2019-01-06 23:00;1,8
2019-01-06 23:15;0,15
2019-01-06 23:30;1,05
2019-01-06 23:45;0,2

